Location: G�ndlingen
(48.0142°N, 7.6396°E)
Time: 08:00:43
(UTC+00:00)

MOS 1-B Rocket - Pass Details

Date: 05 July 2020
Orbit: 891 x 1605 km, 99.1° (Epoch: 04 August)

Event Time Altitude Azimuth Distance (km) Brightness Sun altitude
Rises 22:34:17 0° 14° (NNE) 4,483 8.5 -18.0°
Reaches altitude 10° 22:37:14 10° 15° (NNE) 3,410 7.7 -18.2°
Maximum altitude 22:45:05 89° 286° (WNW) 1,199 4.4 -18.5°
Enters shadow 22:49:27 24° 198° (SSW) 2,096 5.2 -18.6°
